Martinsburg, WV

4:29 PM EST on December 12, 2019 (GMT -0500)
Eastern W Va Regional-Shepherd

Weather History for KMRB - October, 2019

Change the Weather History Date:

Tuesday, October 29, 2019

  Actual Average Record
Temperature  
Mean Temperature 56 °F 50 °F  
Max Temperature 66 °F 61 °F 80 °F (2016)
Min Temperature 44 °F 39 °F 21 °F (1965)
Degree Days  
Heating Degree Days 10 15  
Month to date heating degree days 249 323  
Since 1 July heating degree days 261 414  
Cooling Degree Days 0 0  
Month to date cooling degree days 39 8  
Year to date cooling degree days 1282 893  
Growing Degree Days 6 (Base 50)    
Moisture  
Dew Point 51 °F    
Average Humidity 85    
Maximum Humidity 100    
Minimum Humidity 63    
Precipitation  
Precipitation 0.00 in 0.10 in 3.62 in (1973)
Month to date precipitation 3.58 2.86  
Year to date precipitation 38.48 32.67  
Sea Level Pressure  
Sea Level Pressure 30.22 in    
Wind  
Wind Speed 2 mph ()    
Max Wind Speed 10 mph    
Max Gust Speed 14 mph    
Visibility 8.8 miles    
Events      
T = Trace of Precipitation, MM = Missing Value Source: Averaged Metar Reports

Daily Weather History Graph

Daily Weather History Graph

Search for Another Location

Airport or City:

Astronomy

Oct. 29, 2019 Rise Set
Actual Time 7:36 AM EDT 6:14 PM EDT
Civil Twilight 7:08 AM EDT 6:41 PM EDT
Nautical Twilight 6:37 AM EDT 7:13 PM EDT
Astronomical Twilight 6:05 AM EDT 7:44 PM EDT
Moon 9:07 AM EDT (10/29) 7:37 PM EDT (10/29)
Length of Visible Light 11h 33m
Length of Day
10h 37m
Waxing Crescent, 3% of the Moon is Illuminated
Oct 29
Waxing Crescent
Nov 4
First Quarter
Nov 12
Full
Nov 19
Last Quarter
Nov 26
New

Hourly Weather History & Observations

Time (EDT) Temp. Dew Point Humidity Pressure Visibility Wind Dir Wind Speed Gust Speed Precip Events Conditions
12:53 AM 46.9 °F 45.0 °F 93% 30.22 in 10.0 mi Calm Calm - N/A   Clear
1:53 AM 46.0 °F 44.1 °F 93% 30.22 in 10.0 mi Calm Calm - N/A   Clear
2:53 AM 46.0 °F 44.1 °F 93% 30.22 in 10.0 mi Calm Calm - N/A   Clear
3:53 AM 46.9 °F 45.0 °F 93% 30.21 in 10.0 mi Calm Calm - N/A   Clear
4:53 AM 46.0 °F 44.1 °F 93% 30.21 in 9.0 mi Calm Calm - N/A   Clear
5:53 AM 48.0 °F 46.0 °F 93% 30.22 in 7.0 mi Calm Calm - N/A   Overcast
6:37 AM 50.0 °F 48.0 °F 93% 30.22 in 7.0 mi Calm Calm - N/A   Overcast
6:53 AM 50.0 °F 48.0 °F 93% 30.22 in 7.0 mi Calm Calm - N/A   Overcast
7:53 AM 52.0 °F 50.0 °F 93% 30.24 in 9.0 mi Calm Calm - N/A   Overcast
8:53 AM 53.1 °F 51.1 °F 93% 30.25 in 10.0 mi Calm Calm - N/A   Overcast
9:53 AM 55.9 °F 54.0 °F 93% 30.25 in 10.0 mi Calm Calm - N/A   Overcast
10:53 AM 59.0 °F 53.1 °F 81% 30.25 in 10.0 mi SSE 9.2 mph - N/A   Overcast
12:53 PM 62.1 °F 53.1 °F 72% 30.23 in 10.0 mi SSE 8.1 mph - N/A   Overcast
1:53 PM 66.0 °F 54.0 °F 65% 30.22 in 10.0 mi Variable 6.9 mph - N/A   Mostly Cloudy
2:53 PM 64.9 °F 54.0 °F 68% 30.20 in 10.0 mi SE 6.9 mph - N/A   Mostly Cloudy
3:18 PM 66.0 °F 54.0 °F 65% 30.19 in 10.0 mi SE 8.1 mph - N/A   Scattered Clouds
3:53 PM 66.9 °F 54.0 °F 63% 30.19 in 10.0 mi ESE 8.1 mph - N/A   Scattered Clouds
4:53 PM 64.0 °F 54.0 °F 70% 30.20 in 10.0 mi SE 6.9 mph - N/A   Partly Cloudy
5:53 PM 62.1 °F 54.0 °F 75% 30.21 in 10.0 mi ESE 5.8 mph - N/A   Clear
6:53 PM 60.1 °F 53.1 °F 78% 30.21 in 10.0 mi East 3.5 mph - N/A   Clear
7:53 PM 55.9 °F 53.1 °F 90% 30.22 in 10.0 mi East 3.5 mph - N/A   Clear
8:53 PM 55.0 °F 52.0 °F 89% 30.23 in 10.0 mi Calm Calm - N/A   Clear
9:53 PM 54.0 °F 52.0 °F 93% 30.24 in 10.0 mi Calm Calm - N/A   Partly Cloudy
10:53 PM 53.1 °F 51.1 °F 93% 30.25 in 7.0 mi Calm Calm - N/A   Clear
11:47 PM 51.8 °F 51.8 °F 100% 30.24 in 1.8 mi Calm Calm - N/A   Partly Cloudy
11:53 PM 52.0 °F 51.1 °F 97% 30.24 in 1.5 mi Calm Calm - N/A   Partly Cloudy